Strona główna
METAR-TAF:

METAR-TAF

Lotnisko :

Harding County Airport

Buffalo, Dakota Południowa, Stany Zjednoczone

Szerokość geograficzna: 45-36-16N, Długość geograficzna: 103-32-47W, wysokość: 915 m

Aktualna obserwacja pogody

Raport powstał 27 minut temu, godzina 03:56 UTC
Wiatr 9 kt od północno-północny zachód
Temperatura -4°C
Wilgotność 74%
Ciśnienie 1017 hPa

METAR: K2WX 110356Z AUTO 33009KT M04/M08 A3004 RMK AO1 SLP228 T10441078

czas: 21:23 (04:23 UTC)


TAF: brakujący

Obserwacja i prognoza pogody dla ponad 4000 lotnisk (raport METAR i TAF).

Dostępne stacje oznaczono żółtymi i czerwonymi punktami na mapie.

Najedź kursorem aby zobaczyć nazwę stacji.

Kliknij aby zobaczyć obserwacje i prognozy pogody.

Aby zmienić mapę: kliknij na zielony przycisk z czarnym krzyżykiem, aby powiększyć; na zielony przycisk z myślnikiem, aby pomniejszyć; na zielone strzałki, aby przejść do map sąsiednich.


METAR-TAF: